OPS 4988 DEB, 12099

Orbit data source: Space-Track

OPS 4988 DEB, 12099 is space debris in LEO originally from a launch on Tue, 09 Mar 1965 UTC launched from the Air Force Western Test Range (AFWTR). Debris objects in space refer to the collection of defunct objects orbiting the Earth. Examples of debris include non-operational satellites, rocket bodies, and fragments generated from explosions, collisions, or faulty payload assembly.

Loading next visibility...
Identifier
12099, 1965-016K
Orbit
LEO
Country
Flag of USUS
Related business
Manufacturer
Unknown
Mission
Spacecraft
Bus & Motor
Unknown
Mass
Unknown
Launch date (UTC)
1965-03-09 (61 years ago)
Launch vehicle
Unknown
Launch site
Air Force Western Test Range (AFWTR)
Object type
Payload
Rocket body
Debris
Shape & HBR
Unknown shape, 0.1 m
Radar Cross Section
Small (<0.1 m²)

Expand to show TLE details & history
Last TLE update: 12 hours ago

TLE from 12 hours ago
0 OPS 4988 DEB
1 12099U 65016K   26038.71781792  .00000482  00000-0  33319-3 0  9996
2 12099  70.0760 155.9715 0015289  77.7023  37.6969 14.04821218108849
Epoch: 2026-02-07T17:13Z
TLE epoch observation values (Epoch: 2026-02-07T17:13:39.468Z)
Latitude
58.16218°
Longitude
-95.77794°
Altitude
877.58 km
Speed
7.424 km/s
True Right ascension
20h 01m 53s
True Declination
58° 00' 37"
Sunlit
Object was in daylight at epoch
Visualization orbit readout
Latitude
Unknown
Longitude
Unknown
Altitude
Unknown
Speed
Unknown
Apparent Right ascension
Unknown
Apparent Declination
Unknown
Sunlit
N/A
Visualization observer readout
Local Sidereal Time
07:20:58
Azimuth
Unknown
Elevation
Unknown
Doppler factor
Unknown
Orbital elements
Apogee altitude
886.265 km
Perigee altitude
864.085 km
Semi-major axis
7,253.312 km
Eccentricity
0.00153
Inclination
70.076°
RAAN
155.9715°
Arg. of periapsis
77.7023°
True anomaly
37.80419°
Mean anomaly
37.6969°
Eccentric anomaly
37.75053°
Mean motion
3.51349 °/min
Orbital period
102.46 mins
BSTAR
0.00033319
Loading maneuver chart data...
Computing Atmospheric mass density...
Loading historical data...
Loading historical data...
Loading historical data...
Loading historical data...
Loading historical data...
Loading historical data...
Loading historical data...

Documentation

Showing up to 5 results
|